User: anonymous   Login
Location: Unspecified
(0.0000°N, 0.0000°E)
Time: 20:01:38
(UTC+02:00)
Language:

IUS-9 SRM-1 - Orbit

View from above orbital plane
View from above orbital plane
View from above satellite
View from above satellite

Ground track
Ground track

The orbit data is extracted from the following two-line orbital elements,

1 19884U 89021C   14296.79318251  .00015878  00000-0  18638-2 0  1447
2 19884 026.4831 028.6308 6055213 136.9218 328.5893 03.98448573294650
Epoch (UTC): 23 October 2014 19:02:10
Eccentricity: 0.6055213
inclination: 26.4831°
perigee height: 252 km
apogee height: 20605 km
right ascension of ascending node: 28.6308°
argument of perigee: 136.9218°
revolutions per day: 3.98448573
mean anomaly at epoch: 328.5893°
orbit number at epoch: 29465

The dashed part of the orbit path shows where the satellite is in the earth's shadow,  

DLR